EN

Hourly Weather Boyakovschina

Today, 16 April, Friday

Time Temperature Precipitation Wind Pressure Humidity
00:00 +8°C° 0.2 mm 6 mps 740 mmHg 92%
01:00 +8°C° 0.2 mm 6 mps 740 mmHg 92%
02:00 +8°C° 0.2 mm 5 mps 740 mmHg 93%
03:00 +7°C° 0.6 mm 5 mps 740 mmHg 94%
04:00 +7°C° 0.6 mm 5 mps 740 mmHg 94%
05:00 +7°C° 0.6 mm 5 mps 740 mmHg 95%
06:00 +8°C° 0.9 mm 5 mps 740 mmHg 92%
07:00 +8°C° 0.9 mm 5 mps 740 mmHg 90%
08:00 +9°C° 0.9 mm 5 mps 741 mmHg 87%
09:00 +10°C° 0.2 mm 6 mps 741 mmHg 81%
10:00 +11°C° 0.2 mm 6 mps 741 mmHg 75%
11:00 +13°C° 0.2 mm 6 mps 741 mmHg 69%
12:00 +12°C° 0.5 mm 7 mps 741 mmHg 68%
13:00 +12°C° 0.5 mm 7 mps 742 mmHg 66%
14:00 +12°C° 0.5 mm 7 mps 742 mmHg 64%
15:00 +13°C° 0.3 mm 6 mps 742 mmHg 65%
16:00 +13°C° 0.3 mm 6 mps 742 mmHg 67%
17:00 +12°C° 0.3 mm 5 mps 742 mmHg 68%
18:00 +10°C° 0.4 mm 5 mps 742 mmHg 74%
19:00 +9°C° 0.4 mm 5 mps 743 mmHg 80%
20:00 +8°C° 0.4 mm 4 mps 743 mmHg 86%
21:00 +8°C° 0.1 mm 4 mps 743 mmHg 88%
22:00 +7°C° 0.1 mm 4 mps 743 mmHg 90%
23:00 +7°C° 0.1 mm 4 mps 743 mmHg 92%

Tomorrow, 17 April, Saturday

Time Temperature Precipitation Wind Pressure Humidity
00:00 +8°C° 0.1 mm 3 mps 743 mmHg 93%
01:00 +8°C° 0.1 mm 3 mps 743 mmHg 94%
02:00 +7°C° 0.1 mm 3 mps 743 mmHg 95%
03:00 +7°C° 0.1 mm 3 mps 743 mmHg 96%
04:00 +7°C° 0.1 mm 3 mps 744 mmHg 96%
05:00 +7°C° 0.1 mm 3 mps 744 mmHg 96%
06:00 +8°C° 0.1 mm 3 mps 744 mmHg 91%
07:00 +9°C° 0.1 mm 3 mps 745 mmHg 86%
08:00 +10°C° 0.1 mm 4 mps 745 mmHg 81%
09:00 +11°C° 0 mm 4 mps 745 mmHg 73%
10:00 +12°C° 0 mm 4 mps 745 mmHg 65%
11:00 +13°C° 0 mm 4 mps 745 mmHg 57%
12:00 +13°C° 0.1 mm 4 mps 745 mmHg 57%
13:00 +14°C° 0.1 mm 5 mps 745 mmHg 57%
14:00 +14°C° 0.1 mm 5 mps 745 mmHg 58%
15:00 +13°C° 0.5 mm 5 mps 745 mmHg 66%
16:00 +11°C° 0.5 mm 6 mps 745 mmHg 74%
17:00 +10°C° 0.5 mm 6 mps 745 mmHg 82%
18:00 +10°C° 0.1 mm 6 mps 745 mmHg 82%
19:00 +9°C° 0.1 mm 5 mps 745 mmHg 82%
20:00 +9°C° 0.1 mm 5 mps 744 mmHg 82%
21:00 +9°C° 0.1 mm 5 mps 744 mmHg 82%
22:00 +8°C° 0.1 mm 6 mps 744 mmHg 82%
23:00 +8°C° 0.1 mm 6 mps 744 mmHg 81%

Day after tomorrow, 18 April, Sunday

Time Temperature Precipitation Wind Pressure Humidity
00:00 +7°C° 0 mm 6 mps 744 mmHg 81%
01:00 +7°C° 0 mm 6 mps 744 mmHg 81%
02:00 +5°C° 0 mm 6 mps 744 mmHg 82%
03:00 +5°C° 0 mm 6 mps 744 mmHg 81%
04:00 +5°C° 0 mm 5 mps 744 mmHg 81%
05:00 +5°C° 0 mm 5 mps 744 mmHg 80%
06:00 +5°C° 0 mm 5 mps 744 mmHg 80%
07:00 +5°C° 0 mm 5 mps 744 mmHg 79%
08:00 +4°C° 0 mm 6 mps 744 mmHg 79%
09:00 +5°C° 0 mm 6 mps 744 mmHg 76%
10:00 +7°C° 0 mm 6 mps 744 mmHg 72%
11:00 +8°C° 0 mm 6 mps 745 mmHg 69%
12:00 +8°C° 0 mm 6 mps 745 mmHg 70%
13:00 +8°C° 0 mm 5 mps 745 mmHg 71%
14:00 +8°C° 0 mm 4 mps 745 mmHg 72%
15:00 +8°C° 0 mm 4 mps 745 mmHg 73%
16:00 +8°C° 0 mm 4 mps 745 mmHg 74%
17:00 +8°C° 0 mm 4 mps 745 mmHg 75%
18:00 +7°C° 0 mm 4 mps 745 mmHg 79%
19:00 +6°C° 0 mm 4 mps 746 mmHg 83%
20:00 +5°C° 0 mm 5 mps 746 mmHg 86%
21:00 +5°C° 0 mm 4 mps 746 mmHg 86%
22:00 +5°C° 0 mm 4 mps 745 mmHg 85%
23:00 +4°C° 0 mm 4 mps 745 mmHg 85%

19 April, Monday

Time Temperature Precipitation Wind Pressure Humidity
00:00 +4°C° 0 mm 4 mps 745 mmHg 86%
01:00 +4°C° 0 mm 4 mps 745 mmHg 88%
02:00 +4°C° 0 mm 4 mps 745 mmHg 89%
03:00 +4°C° 0 mm 4 mps 745 mmHg 90%
04:00 +4°C° 0 mm 4 mps 745 mmHg 91%
05:00 +4°C° 0 mm 4 mps 745 mmHg 91%
06:00 +3°C° 0 mm 5 mps 745 mmHg 90%
07:00 +3°C° 0 mm 5 mps 744 mmHg 88%
08:00 +5°C° 0 mm 5 mps 744 mmHg 86%
09:00 +5°C° 0.3 mm 5 mps 744 mmHg 88%
10:00 +4°C° 0.3 mm 6 mps 744 mmHg 90%
11:00 +4°C° 0.3 mm 6 mps 744 mmHg 92%
12:00 +4°C° 0.1 mm 6 mps 744 mmHg 91%
13:00 +4°C° 0.1 mm 6 mps 743 mmHg 90%
14:00 +4°C° 0.1 mm 6 mps 743 mmHg 90%
15:00 +5°C° 0.4 mm 6 mps 743 mmHg 89%
16:00 +6°C° 0.4 mm 5 mps 743 mmHg 89%
17:00 +6°C° 0.4 mm 5 mps 743 mmHg 89%
18:00 +6°C° 1.5 mm 5 mps 742 mmHg 89%
19:00 +6°C° 1.5 mm 4 mps 742 mmHg 90%
20:00 +6°C° 1.5 mm 4 mps 742 mmHg 91%
21:00 +6°C° 0.5 mm 5 mps 742 mmHg 91%
22:00 +5°C° 0.5 mm 5 mps 741 mmHg 91%
23:00 +5°C° 0.5 mm 5 mps 741 mmHg 91%

20 April, Tuesday

Time Temperature Precipitation Wind Pressure Humidity
00:00 +5°C° 0.1 mm 5 mps 741 mmHg 92%
01:00 +5°C° 0.1 mm 5 mps 740 mmHg 92%
02:00 +5°C° 0.1 mm 5 mps 740 mmHg 93%
03:00 +5°C° 0.5 mm 5 mps 739 mmHg 93%
04:00 +4°C° 0.5 mm 6 mps 738 mmHg 93%
05:00 +3°C° 0.5 mm 6 mps 738 mmHg 93%
06:00 +3°C° 0.3 mm 6 mps 737 mmHg 93%
07:00 +3°C° 0.3 mm 7 mps 736 mmHg 93%
08:00 +3°C° 0.3 mm 7 mps 736 mmHg 93%
09:00 +3°C° 0.5 mm 7 mps 735 mmHg 93%
10:00 +3°C° 0.5 mm 7 mps 734 mmHg 93%
11:00 +2°C° 0.5 mm 8 mps 733 mmHg 92%
12:00 +2°C° 2 mm 8 mps 732 mmHg 93%
13:00 +1°C° 2 mm 8 mps 731 mmHg 93%
14:00 +1°C° 2 mm 8 mps 729 mmHg 94%
15:00 +2°C° 2.3 mm 8 mps 728 mmHg 94%
16:00 +2°C° 2.3 mm 8 mps 727 mmHg 94%
17:00 +4°C° 2.3 mm 8 mps 726 mmHg 94%
18:00 +4°C° 1.1 mm 8 mps 726 mmHg 93%
19:00 +5°C° 1.1 mm 7 mps 725 mmHg 92%
20:00 +6°C° 1.1 mm 7 mps 725 mmHg 92%
21:00 +6°C° 0.2 mm 7 mps 724 mmHg 92%
22:00 +7°C° 0.2 mm 6 mps 724 mmHg 92%
23:00 +7°C° 0.2 mm 6 mps 724 mmHg 93%

21 April, Wednesday

Time Temperature Precipitation Wind Pressure Humidity
00:00 +7°C° 0.2 mm 5 mps 724 mmHg 93%
01:00 +7°C° 0.2 mm 5 mps 723 mmHg 94%
02:00 +6°C° 0.2 mm 4 mps 723 mmHg 94%
03:00 +6°C° 0.3 mm 4 mps 723 mmHg 95%
04:00 +7°C° 0.3 mm 3 mps 723 mmHg 96%
05:00 +6°C° 0.3 mm 2 mps 723 mmHg 97%
06:00 +4°C° 0.2 mm 3 mps 723 mmHg 97%
07:00 +3°C° 0.2 mm 4 mps 724 mmHg 96%
08:00 +1°C° 0.2 mm 5 mps 724 mmHg 96%
09:00 +1°C° 0.1 mm 4 mps 725 mmHg 96%
10:00 +1°C° 0.1 mm 4 mps 725 mmHg 96%
11:00 +1°C° 0.1 mm 4 mps 726 mmHg 96%
12:00 +3°C° 0.2 mm 4 mps 726 mmHg 96%
13:00 +3°C° 0.2 mm 4 mps 727 mmHg 95%
14:00 +4°C° 0.2 mm 4 mps 728 mmHg 95%
15:00 +2°C° 0.3 mm 5 mps 728 mmHg 95%
16:00 +2°C° 0.3 mm 6 mps 729 mmHg 96%
17:00 +2°C° 0.3 mm 6 mps 730 mmHg 96%
18:00 +2°C° 0.2 mm 6 mps 731 mmHg 96%
19:00 +2°C° 0.2 mm 6 mps 731 mmHg 96%
20:00 +2°C° 0.2 mm 5 mps 732 mmHg 96%
21:00 +1°C° 0.1 mm 5 mps 733 mmHg 96%
22:00 +1°C° 0.1 mm 5 mps 733 mmHg 96%
23:00 +1°C° 0.1 mm 5 mps 733 mmHg 96%
Show more

We Need Your Consent

Meteoprog and our Service Providers may store and access personal data such as cookies, device identifiers or other similar technologies on your device and process such data to personalise content and ads, as well as provide social media features and to analyse the traffic.

  • Store and/or access information on your device

    Cookies, device identifiers or other information can be stored or accessed on your device for the purposes indicated above.

  • Personalised ads and content, ad and content measurement, audience insights, and products development

    Ads and content can be personalised based on a profile. More data can be added to better personalise ads and content. Ad and content performance can be measured. Insights about the audience who saw the ads and content can be derived. Such data can be used to develop or improve user’s experience, systems and software.

By clicking ‘I Agree’ you will allow the use of indicated cookies, device identifiers, web beacons or other similar technologies. Your settings can be changed in the browser on your device.

For certain purposes, legitimate interests may be relied on, rather than consent. You can read more about this in our Privacy and Cookie Policy.